Simultaneous Nadir Overpasses (SNOs) Predictions

Prediction of SNOs between NOAA-21 and TERRA Satellite Orbit:

Table of predicted SNOs for the next 14.0 days since TLE Epoch: 9/5/2025
Index Date (NOAA-21) Time (NOAA-21) Lat,Lon (NOAA-21) SZA (NOAA-21 ) Date (TERRA) Time (TERRA) Lat,Lon (TERRA) SZA (TERRA ) Distance(km) Time Diff (sec)
1 09/06/2025 04:08:35 -74.29, -73.78 111.84 09/06/2025 04:09:33 -74.31, -73.75 111.84 1.65 58
2 09/06/2025 04:59:19 74.21, 93.74 68.09 09/06/2025 04:58:52 74.22, 93.73 68.10 0.78 27
3 09/08/2025 14:30:15 74.29, -49.18 69.06 09/08/2025 14:31:05 74.32, -49.15 69.08 3.42 50
4 09/08/2025 15:20:58 -74.23, 118.28 111.00 09/08/2025 15:20:28 -74.21, 118.27 111.01 2.16 30
5 09/11/2025 00:51:54 -74.31, -24.66 110.01 09/11/2025 00:52:41 -74.29, -24.67 110.05 2.97 47
6 09/11/2025 01:42:38 74.23, 142.86 69.92 09/11/2025 01:41:59 74.24, 142.90 69.93 1.48 39
7 09/13/2025 11:13:33 74.32, -0.09 70.92 09/13/2025 11:14:10 74.33, 0.01 70.92 3.30 37
8 09/13/2025 12:04:15 -74.21, 167.50 109.19 09/13/2025 12:03:33 -74.24, 167.45 109.16 2.94 42
9 09/15/2025 21:35:11 -74.31, 24.53 108.17 09/15/2025 21:35:45 -74.31, 24.50 108.19 0.96 34
10 09/15/2025 22:25:55 74.22,-167.95 71.75 09/15/2025 22:25:03 74.25,-167.95 71.78 2.81 52
11 09/18/2025 07:56:51 74.33, 49.07 72.78 09/18/2025 07:57:14 74.34, 49.16 72.78 3.05 23



Historial Predications of SNOs between NOAA-21 and TERRA
